Regional Weather Roundup
Issued by NWS

Home | Current Version | Previous Version | Graphics & Text | Print | Product List | Glossary On
Versions: 1 2 3 4 5 6 7 8 9 10 11 12 13 14 15 16 17 18 19 20 21 22 23 24 25 26 27 28 29 30 31 32 33 34 35 36 37 38 39 40 41 42 43 44 45 46 47 48 49 50
000
ASUS43 KMPX 262010
RWRMN
WEATHER ROUNDUP FOR MINNESOTA
NATIONAL WEATHER SERVICE TWIN CITIES/CHANHASSEN MN
300 PM CDT TUE MAY 26 2015


NOTE: "FAIR" INDICATES FEW OR NO CLOUDS BELOW 12,000 FEET WITH NO
SIGNIFICANT WEATHER AND/OR OBSTRUCTIONS TO VISIBILITY. N/A MEANS
CURRENT SKY AND/OR WEATHER CONDITIONS ARE NOT AVAILABLE.

MNZ060>063-068>070-262100-
   Twin Cities Metro

CITY           SKY/WX    TMP DP  RH WIND       PRES   REMARKS
TWIN CITIES    LGT RAIN  58  57  97 N10       29.78S
ST PAUL        LGT RAIN  58  57  97 NW10      29.78R
CRYSTAL        LGT RAIN  58  56  93 N8        29.77S FOG
BLAINE         LGT RAIN  59  59 100 N8        29.78F
LAKEVILLE      RAIN      57  55  94 N7        29.77S
EDEN PRAIRIE   LGT RAIN  58  56  93 N8        29.77S
SOUTH ST PAUL  LGT RAIN  59  57  93 N7        29.77S
LAKE ELMO      LGT RAIN  59  57  94 NW7       29.78S
$$
MNZ001>005-007-008-013>017-022>024-027-028-262100-
   Northwest Minnesota

CITY           SKY/WX    TMP DP  RH WIND       PRES   REMARKS
BEMIDJI        PTSUNNY   71  52  51 CALM      29.81F
HALLOCK        SUNNY     81  45  28 CALM      29.74F
ROSEAU         SUNNY     81  50  34 SW6       29.76F
WARROAD        MOSUNNY   79  54  41 SW7       29.76F
THIEF RVR FALL SUNNY     79  48  34 CALM      29.79S
CROOKSTON      SUNNY     79  54  41 S9G16     29.77F
FOSSTON        PTSUNNY   75  52  43 S6        29.80F
DETROIT LAKES  CLOUDY    72  52  49 SW7       29.83S
MOORHEAD       PTSUNNY   73  55  53 S7        29.80F
PARK RAPIDS    CLOUDY    73  49  42 SE5       29.81F
MAHNOMEN       FAIR      73  55  53 S7        29.81S
$$
MNZ006-009>011-018-025>026-262100-
   North Central Minnesota

CITY           SKY/WX    TMP DP  RH WIND       PRES   REMARKS
BAUDETTE       MOSUNNY   77  51  40 VRB6      29.77F
FLAG ISLAND    MOSUNNY   68  52  56 SE9       29.76S
INTL FALLS     PTSUNNY   74  51  44 VRB5      29.79F
WASKISH        PTSUNNY   70  55  60 W6        29.80F
BIG FORK       PTSUNNY   73  52  46 SE6       29.81F
LONGVILLE      CLOUDY    72  52  49 SE5       29.80F
GRAND RAPIDS   CLOUDY    70  48  46 NE7       29.81F
CRANE LAKE     PTSUNNY   72  48  43 CALM      29.82F
ORR            CLOUDY    72  48  43 S6        29.79F
COOK           CLOUDY    70  52  52 E3        29.82F
WALKER         FAIR      69  53  57 NE5       29.81F
$$
MNZ012-019>021-037-262100-
   Northeast Minnesota

CITY           SKY/WX    TMP DP  RH WIND       PRES   REMARKS
DULUTH         CLOUDY    60  52  74 E8        29.82F
HIBBING        HAZE      71  49  45 E7        29.81F VSB 1
EVELETH        CLOUDY    70  50  49 SE6       29.83S
DULUTH HARBOR  CLOUDY    54  52  94 N3        29.83F
TWO HARBORS    CLOUDY    63  55  77 E7        29.81F
GRAND MARAIS     N/A     49  47  93 W3        29.83F
G MARAIS ARPRT CLOUDY    63  52  67 SE5       29.85S
$$
MNZ029>031-032-039>041-046>048-054>057-064-262100-
   West Central Minnesota

CITY           SKY/WX    TMP DP  RH WIND       PRES   REMARKS
FERGUS FALLS   CLOUDY    72  52  49 CALM      29.82S
WHEATON        CLOUDY    70  54  56 CALM      29.84F
MORRIS         CLOUDY    72  54  53 NE9       29.81S
ALEXANDRIA     CLOUDY    70  50  49 NE15G22   29.82F
ELBOW LAKE     FAIR      70  52  52 CALM      29.82F
WADENA         CLOUDY    72  52  49 E8        29.81F
GLENWOOD       CLOUDY    66  54  63 NE14      29.82S
APPLETON       CLOUDY    72  52  49 NE10      29.81S
BENSON         CLOUDY    70  52  52 E8        29.81S
ORTONVILLE     CLOUDY    70  52  52 N8        29.82F
MADISON        CLOUDY    68  54  60 N10       29.82S
WILLMAR        FAIR      63  55  77 E7        29.82F
$$
MNZ033>034-036-042>043-049>051-058-059-262100-
   Central Minnesota

CITY           SKY/WX    TMP DP  RH WIND       PRES   REMARKS
ST CLOUD       CLOUDY    60  54  80 NE6       29.80S
SAUK CENTRE    FAIR      66  53  63 N9        29.81S
PAYNESVILLE    CLOUDY    57  53  87 N8        29.82S
AITKIN         CLOUDY    70  54  56 NE8       29.79F
PINE RIVER     CLOUDY    72  54  53 CALM      29.84F
BRAINERD       CLOUDY    67  52  58 NE13      29.81F
STAPLES        CLOUDY    70  52  52 NE5       29.80F
LONG PRAIRIE   FAIR      64  52  63 NE8       29.81F
LITTLE FALLS   CLOUDY    63  52  67 E5        29.81F
LITCHFIELD     DRIZZLE   61  57  88 NE5       29.82S
BUFFALO        RAIN      57  55  91 N5        29.81R
MAPLE LAKE     LGT RAIN  58  56  94 N5        29.82R
$$
MNZ037-044-045-052-053-262100-
   East Central Minnesota

CITY           SKY/WX    TMP DP  RH WIND       PRES   REMARKS
PRINCETON      DRIZZLE   59  55  88 N7        29.81S
MORA           DRIZZLE   55  50  82 NE7       29.82F
CAMBRIDGE      DRIZZLE   61  52  72 N5        29.78S
RUSH CITY      CLOUDY    58  54  85 NE7       29.80S
MOOSE LAKE     CLOUDY    61  55  82 NE10G16   29.79F
HINCKLEY       DRIZZLE   59  54  82 NE7       29.80F
CLOQUET        CLOUDY    61  52  72 E8        29.82F
MCGREGOR       CLOUDY    66  54  63 NE9       29.81F
$$
MNZ071>073-080-081-089-090-097-098-262100-
   Southwest Minnesota

CITY           SKY/WX    TMP DP  RH WIND       PRES   REMARKS
MONTEVIDEO     CLOUDY    68  57  68 S5        29.82F
GRANITE FALLS  CLOUDY    61  54  77 CALM      29.83F
CANBY          CLOUDY    66  57  73 N3        29.83F
MARSHALL       CLOUDY    61  52  72 N6        29.82S
REDWOOD FALLS  LGT RAIN  58  56  93 N3        29.81S
OLIVIA         LGT RAIN  57  54  88 NE5       29.81F
PIPESTONE      CLOUDY    59  54  82 N8        29.83F
WINDOM         LGT RAIN  57  55  94 NW13      29.81F
WORTHINGTON    CLOUDY    57  52  82 N9        29.83S
JACKSON        RAIN      59  57  94 NW13      29.81F
TRACY          DRIZZLE   57  56  95 N6        29.83F
SLAYTON        LGT RAIN  56  55  96 N9        29.84S
$$
MNZ065>067-074>077-082>085-091>093-262100-
   South Central Minnesota

CITY           SKY/WX    TMP DP  RH WIND       PRES   REMARKS
MANKATO        CLOUDY    59  55  88 NW10      29.79R
NEW ULM        RAIN      55  55 100 N5        29.81R
ST JAMES       RAIN      61  59  94 NW9       29.81S
FAIRMONT       CLOUDY    59  54  82 NW9       29.79S
GLENCOE        RAIN      58  58  99 N6        29.80S
FARIBAULT      RAIN      61  61 100 NW6       29.77S
OWATONNA       RAIN      63  61  94 W7        29.77S
WASECA         RAIN      61  59  94 W7        29.79S
ALBERT LEA     LGT RAIN  63  61  94 W7        29.77S
$$
MNZ078>079-086>088-094>096-262100-
   Southeast Minnesota

CITY           SKY/WX    TMP DP  RH WIND       PRES   REMARKS
ROCHESTER      RAIN      62  60  93 NW10      29.76S FOG
RED WING       RAIN      64  63  94 W7        29.73F
STANTON        RAIN      62  59  90 N9        29.75S
DODGE CENTER   LGT RAIN  63  61  94 NW8       29.76S
WINONA         RAIN      61  59  94 N5        29.68F
AUSTIN         HVY RAIN  61  59  94 NW7       29.76R
PRESTON        RAIN      59  58  94 NW15      29.72F
$$
ABBREVIATIONS USED IN REMARKS
   TC - TEMPERATURES IN CELSIUS
  WCI - WIND CHILL INDEX
   HX - HEAT INDEX
  VSB - VISIBILITY
$$


USA.gov is the U.S. government's official web portal to all federal, state and local government web resources and services.